Powrót do katalogu

FENGYUN 1C DEB

AktywnySSO
NORAD 31349·DEBRIS·🇨🇳 China

Wystrzelony May 10, 1999 z Taiyuan Satellite Launch Center

Loading…

Następne Przeloty (najbliższe 24 godziny)

TLE

NieaktualneSource: Space-Track

Epoka: Aug 27, 2026, 21:46 UTC

1 31349U 99025BRD 26239.90714995  .00001246  00000-0  77652-3 0  9994
2 31349  99.2579 280.0313 0068782 249.4090 109.9689 14.05691680665637

Śledź FENGYUN 1C DEB w czasie rzeczywistym z AllMySat

Download on the App Store